Location: Palomar Mountain Lodge
(33.3110°N, 116.8495°W)
Time: 17:22:15
(UTC-07:00)

Cosmos 1570 Rocket - Pass Details

Date: 12 July 2018
Orbit: 764 x 788 km, 74.1° (Epoch: 16 July)

Event Time Altitude Azimuth Distance (km) Brightness Sun altitude
Rises 21:57:43 0° 343° (NNW) 3,232 8.3 -20.8°
Reaches altitude 10° 22:00:06 10° 343° (NNW) 2,301 7.4 -21.1°
Maximum altitude 22:05:20 89° 72° (ENE) 766 3.9 -21.9°
Enters shadow 22:06:45 50° 163° (SSE) 966 4.1 -22.1°
